Weather History for George, South Africa

Change the Weather History Date:

Monday, August 27, 2012

  Actual Average Record
Temperature  
Mean Temperature 55 °F -  
Max Temperature 63 °F 64 °F 86 °F (1998)
Min Temperature 47 °F 47 °F 33 °F (1998)
Degree Days  
Heating Degree Days 10    
Growing Degree Days 5 (Base 50)    
Moisture  
Dew Point 48 °F    
Average Humidity 76    
Maximum Humidity 94    
Minimum Humidity 51    
Precipitation  
Precipitation 0.00 in - - ()
Sea Level Pressure  
Sea Level Pressure 30.26 in    
Wind  
Wind Speed 5 mph ()    
Max Wind Speed 9 mph    
Max Gust Speed -    
Visibility 8.2 miles    
Events      
Averages and records for this station are not official NWS values.
T = Trace of Precipitation, MM = Missing Value Source: Averaged Metar Reports

Daily Weather History Graph

Daily Weather History Graph

Search for Another Location

Airport:

Trip Planner

Search our weather history database for the weather conditions in past years. The results will help you decide how hot, cold, wet, or windy it might be!

Date:

Astronomy

Aug. 27, 2012 Rise Set
Actual Time 6:54 AM SAST 6:09 PM SAST
Civil Twilight 6:29 AM SAST 6:34 PM SAST
Nautical Twilight 6:00 AM SAST 7:03 PM SAST
Astronomical Twilight 5:31 AM SAST 7:32 PM SAST
Moon 2:06 PM SAST (8/27) 3:33 AM SAST (8/27)
Length of Visible Light 12h 04m
Length of Day
11h 14m
Waxing Gibbous, 80% of the Moon is Illuminated
Aug 27
Waxing Gibbous
Aug 31
Full
Sep 8
Last Quarter
Sep 16
New
Sep 22
First Quarter

Hourly Weather History & Observations

Time (SAST) Temp. Dew Point Humidity Pressure Visibility Wind Dir Wind Speed Gust Speed Precip Events Conditions
12:00 AM 48.2 °F 44.6 °F 87% 30.27 in - NW 3.5 mph - N/A   Clear
1:00 AM 48.2 °F 44.6 °F 87% 30.27 in - NNW 3.5 mph - N/A   Clear
2:00 AM 49 °F 44 °F 79% 30.28 in 19 mi NW 4.6 mph - -  
2:00 AM 50.0 °F 44.6 °F 82% 30.27 in - NW 4.6 mph - N/A   Clear
3:00 AM 50.0 °F 44.6 °F 82% 30.27 in - NW 4.6 mph - N/A   Clear
4:00 AM 48.2 °F 42.8 °F 82% 30.27 in - NW 4.6 mph - N/A   Clear
5:00 AM 48 °F 42 °F 75% 30.28 in 12 mi NNW 6.9 mph - -  
5:00 AM 48.2 °F 42.8 °F 82% 30.27 in - NNW 6.9 mph - N/A   Clear
6:00 AM 50.0 °F 42.8 °F 76% 30.27 in - NNW 8.1 mph - N/A   Clear
7:00 AM 50.0 °F 44.6 °F 82% 30.30 in 6.2 mi NNW 5.8 mph - N/A   Scattered Clouds
8:00 AM 53 °F 47 °F 73% 30.32 in 12 mi NNW 3.5 mph - -   Scattered Clouds
8:00 AM 53.6 °F 46.4 °F 77% 30.30 in 6.2 mi NNW 3.5 mph - N/A   Partly Cloudy
9:00 AM 59.0 °F 48.2 °F 67% 30.33 in 6.2 mi WNW 3.5 mph - N/A   Partly Cloudy
10:00 AM 60.8 °F 48.2 °F 63% 30.33 in 6.2 mi WSW 5.8 mph - N/A   Partly Cloudy
11:00 AM 61 °F 47 °F 51% 30.33 in 12 mi South 9.2 mph - -   Partly Cloudy
11:00 AM 60.8 °F 48.2 °F 63% 30.30 in 6.2 mi South 9.2 mph - N/A   Scattered Clouds
12:00 PM 62.6 °F 48.2 °F 59% 30.30 in 6.2 mi South 6.9 mph - N/A   Scattered Clouds
1:00 PM 62.6 °F 50.0 °F 63% 30.27 in 6.2 mi South 6.9 mph - N/A   Scattered Clouds
2:00 PM 63 °F 51 °F 54% 30.26 in 19 mi South 9.2 mph - -   Scattered Clouds
2:00 PM 62.6 °F 50.0 °F 63% 30.24 in 6.2 mi South 9.2 mph - N/A   Partly Cloudy
3:00 PM 60.8 °F 50.0 °F 68% 30.24 in 6.2 mi SSE 8.1 mph - N/A   Scattered Clouds
4:00 PM 59.0 °F 50.0 °F 72% 30.24 in 6.2 mi SSE 9.2 mph - N/A   Mostly Cloudy
5:00 PM 58 °F 52 °F 73% 30.24 in 12 mi ESE 6.9 mph - -   Mostly Cloudy
5:00 PM 59.0 °F 51.8 °F 77% 30.21 in 6.2 mi ESE 6.9 mph - N/A   Mostly Cloudy
6:00 PM 57.2 °F 51.8 °F 82% 30.21 in 6.2 mi ESE 6.9 mph - N/A   Mostly Cloudy
7:00 PM 55.4 °F 50.0 °F 82% 30.21 in 6.2 mi ESE 3.5 mph - N/A   Scattered Clouds
8:00 PM 55 °F 52 °F 85% 30.25 in 12 mi East 5.8 mph - -   Mostly Cloudy
8:00 PM 55.4 °F 51.8 °F 88% 30.24 in 6.2 mi East 5.8 mph - N/A   Mostly Cloudy
9:00 PM 53.6 °F 51.8 °F 94% 30.21 in 5.6 mi SE 4.6 mph - N/A   Mostly Cloudy
10:00 PM 53.6 °F 50.0 °F 88% 30.21 in 3.1 mi ESE 6.9 mph - N/A   Scattered Clouds
11:00 PM 51.8 °F 50.0 °F 94% 30.21 in 3.7 mi ESE 6.9 mph - N/A   Unknown